Theta_e
316 316 318 318 318 319 319 318 318 318 318 317 318 317 317 316 316 318 317 311 311 313 313 314 314 314 314 314 315 315 315 314 314 314 314 314 314 314 314 314 314 313 311 311 310 309 309 309 309 309 308 308 307 307 306 306 305 304 304 303 302 301 300 300 299 299 298 297 297 297 297 297 298 298 297 297 297 297 297 297 297 296 297 296 296 296
316 316 317 318 318 318 318 319 318 318 318 317 317 316 316 317 317 319 316 309 309 311 312 314 313 313 314 313 314 314 314 314 314 314 314 315 315 315 315 315 315 314 312 310 310 309 308 308 308 308 307 307 307 307 306 305 305 304 304 303 301 301 300 299 299 298 297 297 297 297 297 297 297 297 297 296 296 297 297 297 296 296 296 296 296 296
316 316 317 318 318 317 316 316 316 317 317 317 317 316 316 317 318 319 314 309 308 310 312 313 313 313 313 313 314 314 314 314 314 314 315 315 315 315 316 316 316 314 311 310 309 308 308 307 307 307 307 307 307 306 306 305 304 304 303 302 301 300 299 299 298 298 297 297 297 297 297 297 297 297 296 296 296 296 296 296 296 296 296 296 295 295
317 317 316 317 317 316 316 314 314 315 316 316 317 316 316 318 319 317 313 309 309 310 311 312 312 312 313 313 314 314 315 315 315 315 315 315 315 316 316 316 316 314 312 311 309 308 308 307 307 307 307 306 306 305 305 304 304 303 302 301 300 299 299 298 298 297 297 297 296 296 297 297 296 296 296 295 296 296 296 295 296 296 295 295 295 295
317 316 314 315 316 316 316 315 314 315 315 316 317 317 317 318 319 318 315 312 312 312 310 311 313 314 315 316 315 315 315 315 315 314 314 314 314 314 314 314 315 314 312 311 310 309 308 308 309 308 307 307 306 306 306 305 304 303 302 301 300 299 299 298 297 297 297 297 296 296 296 296 295 295 295 295 295 295 295 295 295 295 295 295 295 294
316 315 313 315 315 315 317 316 316 316 315 316 318 318 318 318 318 319 318 315 315 315 312 312 314 315 315 316 317 316 314 314 313 313 313 313 313 314 314 314 314 314 312 311 310 309 309 309 309 309 308 308 307 307 306 306 305 303 302 301 300 299 298 298 297 297 297 297 296 296 295 295 295 294 295 295 295 295 295 295 295 295 295 294 294 294
316 313 312 316 316 316 317 316 316 317 315 315 318 318 318 317 318 318 317 315 315 315 313 312 314 315 315 315 316 316 315 314 315 314 314 314 314 314 315 315 315 313 312 311 310 309 309 309 310 310 310 309 309 308 307 306 304 303 302 300 299 299 298 297 297 297 297 296 295 295 295 295 295 294 294 294 294 295 295 295 295 295 294 294 294 293
316 314 313 315 316 316 316 316 317 317 316 316 316 315 315 315 316 316 316 315 314 315 314 313 314 315 315 315 316 315 314 314 314 315 316 315 315 315 314 316 316 314 312 311 311 310 310 310 311 312 311 310 309 308 308 306 305 304 302 300 299 298 298 297 297 297 296 296 295 295 295 294 294 294 294 294 294 294 294 294 294 294 294 294 293 292
317 316 315 315 314 315 316 316 317 317 316 315 312 312 313 313 314 314 314 314 314 314 315 315 314 315 316 316 316 315 314 313 313 314 314 315 316 316 316 317 317 315 313 311 311 310 311 312 312 312 311 310 309 308 308 307 306 304 302 300 299 298 298 297 297 297 296 295 295 295 294 294 294 294 294 294 294 294 294 294 294 294 293 293 293 293
315 312 313 314 315 316 314 311 313 317 316 312 310 311 312 312 312 312 313 313 313 314 315 316 314 315 316 316 315 315 314 313 314 314 314 315 316 316 317 318 317 314 312 311 311 310 311 313 312 312 311 310 309 308 307 307 305 304 302 301 299 298 297 297 297 296 296 295 295 294 294 294 294 294 293 293 294 293 293 293 293 293 292 292 292 292
311 307 309 313 315 313 310 306 307 311 311 310 311 313 312 312 311 311 312 312 313 316 317 316 315 315 316 316 315 315 314 314 315 314 315 316 316 317 318 317 315 313 312 312 311 311 311 312 312 311 310 309 308 308 307 306 305 303 302 301 300 298 297 296 296 296 295 295 294 294 294 294 294 293 293 293 293 293 293 293 293 293 292 292 292 292
312 309 310 312 311 310 309 308 307 307 308 311 313 312 314 314 312 312 312 312 314 317 316 316 316 316 315 315 314 315 315 315 316 315 315 316 316 316 318 317 314 313 313 313 313 313 313 312 312 311 310 309 309 309 309 308 306 304 302 301 300 298 297 296 296 295 295 294 294 294 294 294 293 293 293 293 293 293 293 293 293 292 292 292 292 292
316 314 313 312 309 309 312 312 308 306 307 311 312 312 315 315 315 316 315 314 316 317 315 314 316 317 316 314 314 314 314 314 315 315 315 315 315 316 318 317 314 312 313 314 314 314 313 313 313 312 311 311 311 312 311 310 307 305 303 301 300 299 298 297 296 295 295 294 294 294 293 293 293 293 293 293 293 293 293 293 292 292 292 292 292 292
317 317 314 313 311 310 312 313 313 311 308 310 312 313 315 316 317 319 318 317 317 316 313 311 313 315 314 313 314 314 314 315 315 315 315 315 315 315 317 316 314 313 314 314 314 314 314 314 314 313 312 312 313 313 312 310 308 306 304 302 301 299 298 298 297 296 295 294 294 293 293 293 293 292 292 292 292 292 292 292 292 292 292 292 292 291
317 317 315 315 314 312 312 313 316 315 310 310 313 314 315 316 316 317 316 316 316 316 313 310 311 313 312 313 315 315 315 315 315 314 315 315 314 315 315 314 313 313 313 314 314 314 314 314 314 313 313 313 313 313 313 311 309 307 305 304 302 300 299 298 297 296 295 294 293 293 293 292 292 292 292 292 292 292 292 292 292 292 291 291 291 290
316 317 317 315 313 312 312 314 316 315 313 311 312 314 315 316 316 316 316 315 314 314 314 312 312 312 312 314 315 315 315 315 315 315 314 314 315 314 314 312 311 312 312 313 314 314 314 314 314 313 313 313 313 313 312 312 310 309 308 306 304 301 300 300 298 296 295 294 293 293 292 292 292 292 292 292 291 291 291 291 291 291 291 290 290 290
315 317 317 311 310 309 308 311 314 314 314 313 312 314 314 315 316 316 317 315 312 313 315 314 313 313 313 315 314 314 314 314 314 314 314 315 314 314 314 312 311 311 312 313 314 313 313 314 314 313 313 313 313 313 313 312 311 310 309 307 304 302 301 300 299 297 295 294 293 293 292 292 292 292 291 291 291 291 291 291 291 290 290 290 290 290
315 316 316 312 311 307 303 307 310 309 312 312 312 314 313 313 313 313 315 315 314 315 315 314 314 313 313 315 314 313 312 312 313 313 313 314 314 314 314 313 312 311 311 311 313 312 313 313 313 313 313 313 313 313 312 312 311 310 309 307 305 303 302 301 299 297 296 294 293 293 292 292 292 291 291 291 291 290 290 290 290 290 290 290 289 289
317 316 316 311 310 307 304 308 310 308 308 309 310 311 311 312 313 313 314 314 314 315 315 314 314 314 314 315 314 313 312 312 312 313 313 312 313 314 313 312 312 311 310 310 311 312 312 312 312 312 313 312 312 313 312 312 311 309 308 306 304 302 302 301 299 297 296 294 293 293 292 292 291 291 290 290 290 290 290 290 290 290 289 289 289 289
315 316 316 308 306 308 306 308 311 310 308 307 307 309 309 311 312 313 314 314 313 314 314 315 315 315 315 315 314 314 313 313 313 313 313 313 313 314 313 312 312 312 311 311 311 312 311 311 312 312 312 312 312 312 312 311 310 310 308 307 304 302 301 300 299 297 296 295 293 293 292 292 291 290 290 290 290 290 290 290 289 289 289 289 288 288
314 315 316 308 304 308 309 309 311 312 311 308 308 309 309 309 310 311 312 313 313 314 313 314 315 314 314 314 314 314 314 313 314 314 315 315 314 313 313 312 312 312 312 312 312 312 311 310 311 311 311 311 311 312 312 311 310 310 309 307 305 302 301 300 299 297 296 295 294 293 292 291 291 290 290 290 289 289 289 289 289 289 289 288 288 288
314 314 315 312 308 310 311 312 312 314 314 312 310 310 311 311 311 311 313 313 313 313 314 314 314 314 314 314 314 313 313 313 313 313 314 316 315 313 312 312 312 312 312 312 312 312 311 310 310 311 311 311 311 312 312 311 310 310 309 308 305 303 302 301 299 298 296 295 294 293 292 291 290 290 290 289 289 289 289 289 289 289 288 288 288 288
315 314 314 314 313 313 313 311 311 313 314 313 312 312 312 312 312 313 314 314 312 312 313 314 315 315 314 314 314 313 313 313 313 313 313 314 314 313 312 311 311 312 312 312 312 311 312 310 310 310 311 311 311 312 312 312 311 310 309 308 306 304 302 301 299 298 296 295 293 292 291 291 290 289 289 289 289 289 289 289 288 288 288 288 288 288
314 314 313 313 314 314 313 309 307 307 309 311 312 312 313 312 312 313 313 313 313 313 313 313 314 314 314 315 314 313 314 313 313 313 312 313 313 312 312 311 311 311 311 311 311 311 311 311 310 310 310 311 311 311 312 312 311 310 309 308 306 304 302 301 299 298 296 294 293 292 291 291 290 289 289 289 289 289 289 288 288 288 288 288 288 288
314 314 313 313 313 314 314 311 308 306 307 309 310 311 313 313 313 314 312 311 312 314 313 313 313 313 314 315 314 313 313 313 312 312 312 312 312 312 311 311 311 311 311 311 311 311 311 311 311 311 310 310 311 312 312 312 311 310 309 308 307 304 302 301 299 297 295 294 292 291 291 290 290 289 288 288 288 288 288 288 288 288 288 288 288 288
313 314 313 313 313 313 314 313 312 310 307 308 310 311 312 313 313 313 312 311 312 313 312 313 313 312 312 313 313 312 313 312 312 313 312 311 311 311 311 311 311 311 310 310 311 310 311 311 311 311 310 310 310 311 311 312 311 310 309 308 306 304 302 301 299 297 295 293 292 291 291 290 289 289 288 288 288 288 288 288 288 288 288 288 288 288
313 314 312 312 312 313 313 313 314 313 309 308 310 310 311 313 313 313 312 312 313 312 312 312 313 313 313 312 312 312 312 312 312 313 312 311 310 310 310 310 310 310 310 310 310 310 310 310 310 311 310 310 310 311 311 311 311 310 308 307 305 303 301 300 298 296 294 292 291 290 290 290 289 288 288 288 288 288 288 288 288 288 288 288 288 287
312 312 311 311 311 312 312 312 313 313 311 310 311 310 310 312 313 314 313 312 312 312 312 313 313 314 313 312 312 312 312 312 312 312 313 312 311 310 309 309 309 309 309 309 309 310 310 310 310 310 310 310 311 311 311 310 310 308 307 306 305 303 301 300 298 295 293 292 290 290 290 289 289 288 287 288 288 288 288 288 288 288 288 288 287 287
310 310 311 312 312 311 312 311 311 312 311 312 312 312 311 311 312 313 312 312 312 312 312 312 313 313 313 312 312 312 312 312 312 312 312 312 311 311 309 308 308 308 308 308 309 309 309 309 310 309 310 310 310 311 311 310 309 307 306 305 303 302 301 299 297 294 293 291 290 289 289 289 288 287 287 288 288 288 288 288 288 288 288 288 287 287
309 310 310 311 311 311 311 311 311 311 311 312 312 312 312 312 312 312 312 311 312 312 312 312 312 312 312 312 311 311 311 311 312 312 312 311 311 311 310 309 309 309 309 309 308 308 308 308 309 309 309 309 309 309 309 309 308 307 305 304 303 301 300 298 295 294 292 291 290 289 289 288 288 287 287 287 287 287 288 288 288 288 288 287 287 287
309 310 310 310 311 311 310 311 311 311 312 312 312 312 312 311 311 311 311 312 312 312 311 312 312 312 312 311 311 311 311 311 311 311 311 311 311 310 310 310 310 309 310 309 309 308 308 308 308 308 308 308 308 308 308 308 307 305 304 303 302 301 299 297 295 293 291 290 289 289 289 288 287 287 287 287 287 287 288 288 288 288 288 287 287 287
309 309 310 311 311 311 311 311 311 311 311 311 311 311 311 310 310 311 311 311 312 312 312 312 312 311 311 311 311 311 311 311 311 311 310 310 310 310 310 310 309 309 310 309 309 309 309 308 308 307 308 308 307 307 307 307 306 304 303 303 302 300 299 296 294 292 291 289 289 288 288 288 287 287 287 287 287 288 288 288 288 288 287 287 287 286
309 309 310 311 311 311 311 311 310 311 312 311 311 311 310 310 310 310 311 311 311 311 312 312 312 311 311 311 311 311 310 310 311 310 310 310 310 310 310 310 310 310 310 310 310 309 309 309 308 308 308 307 307 307 307 306 306 304 304 303 301 300 298 296 293 291 290 289 288 288 288 287 287 287 287 287 287 288 288 288 288 287 287 287 286 286
309 309 309 310 311 311 311 311 311 311 312 312 312 311 310 310 310 310 310 310 310 311 311 311 311 311 311 311 311 310 310 311 311 311 310 310 310 310 310 310 310 310 310 310 310 310 309 309 309 308 308 308 307 307 306 305 304 303 302 300 299 298 297 295 292 290 289 288 288 288 288 287 287 287 287 287 287 288 288 288 287 287 287 286 286 286
309 309 309 309 310 310 311 311 312 312 312 312 311 311 310 309 310 310 311 310 310 310 311 311 311 310 311 311 311 311 311 311 311 311 311 311 311 311 310 310 310 310 310 310 310 309 309 309 308 308 308 308 307 306 305 304 303 302 300 299 298 297 296 294 292 290 289 288 288 288 287 287 287 287 287 287 287 288 288 287 287 287 286 286 286 285
309 309 309 310 310 311 311 311 313 314 312 310 310 310 310 310 310 310 311 311 310 310 311 311 310 310 311 311 311 311 311 311 311 311 311 311 311 311 310 310 310 310 310 310 310 309 309 309 308 308 308 308 307 306 305 304 303 302 300 299 297 296 294 293 291 289 288 288 287 287 287 286 287 287 287 287 287 287 287 287 287 286 286 285 285 285
309 310 310 310 311 311 311 311 312 313 312 311 311 311 310 310 310 311 312 312 310 310 310 310 310 310 311 311 311 311 311 311 311 311 311 311 311 310 310 310 310 310 310 310 310 310 310 309 309 309 308 308 307 306 305 304 303 302 300 298 297 295 294 292 290 289 288 288 287 287 286 286 287 287 287 287 287 287 287 287 286 286 285 285 284 284
309 309 310 311 312 312 312 311 312 312 312 313 313 312 311 311 311 312 313 313 312 311 311 310 311 311 311 311 311 311 311 311 311 311 311 311 311 310 310 310 310 310 310 310 310 310 310 310 310 309 309 308 308 308 307 306 304 302 300 299 297 296 294 292 290 289 288 288 287 287 286 286 287 287 287 287 287 287 287 286 286 285 284 284 283 283
309 308 309 310 311 312 313 312 313 313 313 313 312 312 312 312 312 312 313 314 313 312 311 311 311 311 311 311 311 311 312 312 311 311 311 311 311 310 310 310 310 310 310 310 310 310 310 310 310 310 309 309 309 309 309 307 305 302 301 300 298 296 294 292 291 290 288 287 287 286 286 286 287 287 287 287 287 287 287 286 285 284 283 283 282 282
309 308 309 310 310 311 312 312 313 313 313 313 312 311 312 312 312 314 314 315 313 312 312 311 312 312 312 311 311 312 312 311 311 311 311 311 311 311 310 310 310 310 310 310 310 310 310 310 310 310 309 310 310 310 309 308 305 303 301 300 298 297 296 294 291 289 288 287 286 286 286 286 286 287 287 287 287 287 286 286 285 284 283 282 282 282
310 309 309 310 310 310 311 312 312 312 313 313 312 311 311 312 312 314 314 315 312 312 312 311 311 312 311 311 311 311 311 311 311 311 311 311 310 310 311 310 310 309 309 309 309 309 309 309 309 309 309 309 309 309 308 308 305 303 301 300 298 298 296 293 291 289 287 287 286 286 286 286 286 287 287 287 287 286 286 285 284 283 282 282 281 282
311 310 310 310 310 310 310 311 312 312 312 311 311 311 311 312 312 313 313 312 312 312 312 311 311 311 311 311 310 311 311 310 310 310 310 310 310 310 310 310 309 309 309 309 309 308 308 308 309 309 309 308 308 307 307 306 305 303 301 299 298 297 294 291 290 288 287 286 286 286 286 286 287 287 287 287 287 286 285 284 283 282 282 281 281 281
312 312 311 311 311 310 311 311 312 312 313 312 312 312 311 312 313 312 311 311 312 311 311 311 311 311 311 311 310 311 310 310 310 310 309 310 309 310 310 309 309 309 309 309 309 308 308 308 308 308 308 308 308 308 306 305 304 302 301 299 297 295 292 291 289 287 286 286 286 286 286 286 287 287 287 287 286 285 284 283 282 282 281 281 281 280
313 314 313 312 311 311 312 312 312 312 312 311 311 311 312 312 312 312 312 312 311 311 311 311 311 311 311 311 310 311 310 310 310 310 309 310 309 309 309 309 309 309 309 309 309 308 307 307 307 307 307 307 307 307 306 304 302 301 299 298 296 293 291 290 288 287 286 286 286 286 286 287 287 287 287 286 285 284 283 282 281 281 281 280 280 279
311 310 309 310 310 310 310 310 311 311 311 311 311 311 311 311 311 312 312 311 311 311 311 311 310 310 310 310 309 309 309 309 309 309 309 309 309 309 309 309 309 308 308 308 308 307 306 305 305 306 306 306 306 306 305 303 301 300 299 297 295 294 292 290 288 286 286 286 286 286 287 287 287 287 287 286 285 283 282 282 281 281 280 280 279 278
306 305 305 306 306 307 309 310 309 309 309 309 308 308 309 310 309 309 308 308 309 309 308 308 307 307 307 307 307 306 307 307 307 307 308 308 308 308 308 308 308 307 307 307 306 306 305 304 304 304 304 304 305 304 303 301 300 299 298 297 295 294 292 290 287 286 285 286 286 286 287 287 287 287 286 285 284 282 281 281 281 280 279 278 278 277
304 305 303 302 303 304 306 307 305 304 304 304 305 306 307 308 308 307 307 306 306 306 306 306 306 306 306 307 306 306 306 306 306 306 306 306 306 306 306 307 307 307 306 306 306 305 304 303 303 303 303 303 303 303 302 300 298 296 296 296 295 293 290 289 287 286 285 286 286 287 287 287 287 286 285 284 282 281 281 280 280 279 278 277 277 277
302 302 300 299 300 300 301 301 300 301 301 301 304 306 307 307 306 306 305 305 304 304 304 304 305 305 306 306 306 306 306 306 306 306 307 307 306 306 306 307 306 306 306 306 305 305 304 303 303 303 302 303 302 302 300 298 296 294 293 293 293 292 289 287 286 286 286 286 286 287 287 287 286 285 284 283 281 280 280 279 279 278 277 277 276 276
298 297 297 297 297 297 298 298 298 299 300 302 305 306 305 304 304 303 302 302 302 302 303 303 304 304 305 305 305 306 306 306 306 306 306 306 306 306 306 306 306 306 306 306 305 305 305 304 303 302 302 302 301 300 299 297 295 294 292 291 292 291 288 286 286 286 286 286 287 287 286 286 286 285 283 282 280 280 279 278 278 277 276 276 276 276
295 295 295 296 297 297 297 298 298 299 301 303 303 302 300 299 299 299 299 299 299 299 300 301 301 302 302 302 303 304 304 304 304 305 305 305 305 305 305 305 305 305 305 305 305 305 305 305 304 302 301 300 299 298 297 296 295 293 291 290 290 290 288 286 286 286 286 287 287 286 286 286 285 283 282 280 280 279 278 277 276 276 276 275 276 276
295 295 296 297 297 297 297 298 298 298 298 299 298 296 296 296 296 296 296 296 296 296 296 297 298 298 299 299 300 300 301 302 303 304 304 304 304 304 304 304 304 304 304 304 304 304 304 304 304 302 300 299 298 297 296 295 295 294 291 289 288 288 287 286 286 286 286 287 286 286 286 286 284 282 280 280 279 278 278 277 276 275 275 275 275 275
Wind_Speed
6 5 7 9 11 12 12 13 16 16 13 11 10 9 12 12 12 16 8 5 6 5 10 16 17 19 20 19 18 23 25 23 24 25 27 32 30 25 25 27 26 28 30 30 30 31 29 31 33 36 38 39 40 41 44 45 46 47 46 44 42 41 40 39 39 37 36 35 34 34 33 32 30 29 26 24 23 23 22 19 17 15 14 12 12 12
5 7 11 16 16 12 8 7 12 14 12 10 10 10 11 11 13 15 6 5 6 4 9 14 16 19 19 17 18 22 22 20 23 25 27 31 29 26 25 26 23 20 22 24 25 27 28 29 31 34 37 39 40 41 43 45 46 46 46 45 43 42 41 41 40 38 36 36 36 35 34 33 32 29 27 26 25 24 22 19 17 16 14 13 13 13
6 10 17 19 10 4 3 4 8 12 12 10 8 7 10 9 11 12 2 6 5 4 8 11 14 17 18 19 19 21 20 21 28 29 29 30 26 26 26 23 18 17 20 21 22 25 27 28 29 30 34 36 37 40 42 44 45 46 46 45 44 43 42 41 40 38 37 37 37 36 35 33 32 30 28 27 26 24 22 20 18 16 15 14 14 14
7 9 13 12 5 5 7 5 6 9 9 9 7 7 9 8 8 8 2 3 5 7 7 12 12 14 17 18 19 24 26 24 27 29 29 29 26 28 29 21 14 17 20 19 20 23 25 25 26 27 30 33 36 39 42 44 45 46 46 46 45 45 44 42 40 39 39 39 39 37 35 33 32 30 28 27 26 24 22 20 18 17 15 15 15 16
13 8 2 1 3 7 9 6 7 8 6 8 10 10 11 10 11 10 3 3 7 8 4 9 12 11 12 14 13 15 18 17 18 19 22 28 31 32 33 28 18 17 19 18 19 22 24 23 22 23 26 30 34 37 40 42 44 45 46 46 47 46 44 42 41 41 41 41 39 37 35 33 31 30 28 28 26 25 23 21 19 17 16 16 17 17
16 7 5 3 4 6 8 7 8 8 6 9 11 14 16 14 14 12 6 7 8 6 1 4 11 8 5 8 8 5 6 8 9 11 15 26 31 27 28 29 21 18 20 20 21 23 24 22 20 22 24 27 30 33 35 38 41 44 45 46 47 46 45 43 43 42 41 40 38 37 36 34 33 31 30 29 27 26 24 21 19 17 17 17 18 18
8 3 4 6 7 6 8 10 10 9 7 8 4 6 11 13 13 12 9 5 6 7 0 3 8 9 3 5 7 5 6 8 7 8 12 18 22 22 27 26 18 19 20 18 20 24 24 22 21 21 22 23 25 27 30 34 38 41 44 46 47 46 45 44 44 43 42 40 39 38 37 35 34 33 32 30 29 27 24 21 20 18 18 18 18 19
5 5 3 6 7 7 9 10 9 11 8 5 1 3 2 5 8 8 7 6 6 9 4 4 4 12 8 5 9 9 8 8 8 11 12 13 18 23 28 27 19 20 19 17 21 24 23 21 20 20 19 19 20 23 26 30 35 39 42 45 46 46 46 45 44 43 42 41 40 40 38 37 36 34 33 32 29 27 24 22 20 19 19 19 19 19
4 6 6 8 7 7 8 3 3 11 9 1 3 3 3 1 2 2 4 6 6 9 7 6 7 9 11 4 11 12 11 11 12 14 14 14 18 19 21 23 20 18 17 17 21 22 20 18 18 18 16 16 18 21 24 27 31 36 40 43 45 46 46 45 44 43 43 42 42 41 39 38 37 35 34 32 29 27 24 22 21 20 20 19 18 19
3 1 3 7 8 7 3 4 4 5 5 2 4 4 5 3 1 1 4 5 6 8 9 8 10 7 12 3 9 7 8 10 11 12 13 14 18 17 16 18 18 16 15 16 18 18 18 17 17 17 16 17 19 20 22 25 30 34 38 41 44 45 45 45 44 44 43 43 43 42 40 39 37 36 34 32 29 27 25 23 21 21 20 19 19 19
2 4 2 4 6 2 5 6 6 3 2 5 4 2 2 2 2 2 4 2 5 10 10 12 16 11 10 1 8 6 8 11 9 8 10 10 13 14 12 14 16 16 15 15 16 17 18 18 18 18 18 18 18 19 21 25 29 33 37 40 42 43 45 45 45 45 45 45 45 43 41 39 38 37 35 33 31 28 26 23 22 21 20 19 19 20
6 5 2 3 3 4 5 3 4 4 1 3 3 2 2 4 2 3 4 3 6 10 5 12 19 17 11 4 6 6 9 13 9 6 9 9 10 10 9 10 12 14 15 16 18 19 20 20 20 20 20 19 18 18 20 24 28 32 35 38 41 43 44 46 46 46 46 47 46 44 42 40 39 38 35 33 31 29 27 24 23 22 20 20 20 20
6 8 7 4 3 7 6 2 2 2 2 4 4 4 4 5 3 5 5 4 8 7 2 7 11 13 13 10 8 8 7 11 9 6 10 10 10 11 8 9 12 13 17 19 20 20 21 21 21 20 19 18 17 16 18 23 27 31 33 37 40 42 44 46 47 48 48 48 47 45 43 41 40 38 36 34 32 30 27 26 24 23 21 21 21 21
3 3 9 7 3 10 12 7 5 4 7 8 7 6 6 5 5 7 6 6 9 6 3 5 3 6 9 9 14 18 15 13 10 10 14 15 16 16 13 13 15 14 18 21 22 22 22 21 19 19 18 17 17 16 18 22 26 29 32 35 38 41 43 45 47 48 49 49 48 46 43 42 41 39 37 35 33 30 28 26 25 23 22 21 21 21
6 6 9 10 4 13 18 12 6 3 7 10 7 6 7 6 6 7 6 8 8 6 1 4 2 5 5 1 9 15 17 17 14 15 19 20 22 21 17 17 18 17 20 24 24 23 22 21 19 18 18 18 18 17 19 22 25 28 31 33 37 40 43 45 47 49 50 50 49 47 44 43 42 40 38 35 33 31 29 27 25 23 23 22 21 21
7 9 7 7 3 13 14 9 4 4 4 7 5 6 7 6 7 8 9 7 4 7 6 5 4 7 7 5 5 6 8 14 14 16 18 17 22 23 19 22 23 21 22 25 26 25 23 22 21 21 20 19 19 20 20 22 24 26 29 32 35 39 42 45 47 49 50 51 50 48 46 44 43 41 39 36 34 31 29 26 25 24 23 22 21 21
5 5 5 5 1 6 4 2 4 2 2 5 6 7 3 1 3 7 9 3 1 7 8 5 7 8 9 11 7 10 9 12 12 14 14 14 20 21 20 24 27 25 25 26 28 27 25 24 24 23 21 21 22 22 22 22 24 26 28 31 35 39 43 45 47 49 50 51 51 49 47 45 44 42 39 36 34 31 29 27 25 24 23 22 22 22
5 4 3 4 2 2 3 3 1 2 1 4 4 4 2 2 0 4 7 4 4 10 9 9 13 11 10 8 8 14 13 13 14 14 12 13 16 16 19 25 28 28 27 27 29 28 26 26 26 26 24 23 24 24 23 24 25 28 30 32 35 39 42 44 47 49 51 52 52 50 48 46 44 42 38 36 34 31 29 27 26 24 23 23 23 23
2 3 3 1 1 3 3 1 3 2 2 1 2 1 1 2 4 5 6 5 7 9 9 15 18 14 12 8 5 13 15 15 16 14 10 11 12 13 20 26 28 27 26 28 31 32 33 32 29 28 28 26 26 25 25 26 28 29 31 34 37 39 42 44 47 49 51 53 53 51 49 46 44 41 38 36 34 31 29 27 26 24 24 24 23 23
3 4 4 1 2 3 3 4 5 5 4 1 3 3 1 2 3 5 5 5 7 8 9 14 16 13 10 8 7 11 15 16 16 13 10 11 12 15 21 27 29 27 26 29 31 32 36 38 35 33 32 30 28 28 28 29 29 30 32 35 38 41 43 45 48 50 51 53 53 52 49 46 44 42 39 37 34 31 30 28 26 25 24 24 24 23
2 4 6 1 1 3 5 7 9 10 9 5 5 6 5 3 1 2 5 6 7 7 7 9 13 14 5 1 5 8 11 12 10 8 9 9 12 17 22 26 27 25 26 26 27 29 34 38 39 39 38 34 31 31 32 31 30 31 34 36 39 42 44 46 48 51 52 53 53 52 50 47 45 42 39 37 34 32 30 28 26 25 25 24 24 23
3 5 7 3 3 7 7 8 11 12 10 9 9 9 10 9 5 4 7 7 4 5 8 7 11 16 4 6 5 6 5 5 5 5 7 7 12 18 21 23 23 24 26 24 25 29 32 35 36 38 39 36 35 36 35 34 32 32 35 37 40 43 44 46 48 51 52 53 54 53 51 48 45 43 40 37 35 33 30 29 27 26 25 24 23 23
6 2 6 8 7 7 5 2 2 3 3 4 7 9 10 9 9 9 8 5 3 5 8 8 11 17 7 7 4 1 1 4 5 6 8 8 13 17 20 22 23 24 24 22 24 29 30 32 33 36 38 37 38 39 38 37 35 34 36 38 41 44 45 46 48 50 52 53 54 53 51 48 46 43 40 37 35 33 31 29 27 26 25 23 23 23
3 2 6 8 5 6 4 0 2 3 0 4 7 8 8 9 10 9 4 1 2 5 8 8 9 15 8 5 1 9 8 8 9 12 14 13 14 19 22 24 23 22 22 21 24 27 28 29 32 37 40 39 40 41 41 40 37 36 37 39 42 44 45 47 49 50 52 54 54 54 51 49 47 43 40 38 36 33 31 29 27 26 24 22 23 24
4 2 6 6 5 6 6 5 3 2 4 6 8 9 11 12 11 5 1 0 4 12 16 11 8 13 10 0 5 14 11 7 9 16 20 19 19 22 22 24 24 23 23 23 24 26 29 31 33 38 41 41 42 43 43 42 40 38 38 40 43 44 46 48 49 51 53 54 55 54 52 50 47 44 41 38 36 33 31 29 27 25 23 22 23 24
7 4 6 7 9 8 10 12 6 3 5 6 8 11 13 15 14 8 5 5 9 17 19 13 11 15 16 15 18 20 15 10 13 18 18 17 21 22 21 24 25 25 25 25 26 28 31 33 34 37 41 43 44 45 45 44 42 40 39 41 43 45 47 48 50 51 53 55 56 55 53 50 47 44 41 38 36 33 31 29 26 24 23 22 24 24
3 3 11 14 15 13 15 17 8 2 6 8 10 13 12 14 17 12 7 9 13 13 12 14 18 19 18 21 25 25 22 20 22 23 19 15 18 20 22 25 26 27 28 27 29 32 32 34 35 35 39 42 43 44 45 45 43 42 41 42 44 46 48 49 50 51 53 55 56 55 53 51 47 43 41 38 36 33 30 28 25 23 22 23 24 23
1 6 15 20 23 21 20 23 20 14 11 11 12 14 14 15 15 13 15 17 14 9 10 17 23 21 16 18 24 27 25 23 24 24 23 21 19 19 21 24 26 28 29 29 30 32 32 34 36 36 38 40 42 45 46 45 44 43 42 44 45 47 49 50 50 52 54 55 56 55 53 50 46 43 41 38 35 32 30 27 25 23 23 24 24 23
3 9 14 17 21 21 19 21 22 22 20 14 13 14 15 16 17 19 24 21 13 12 16 20 23 23 17 18 25 27 25 24 27 32 34 32 29 21 15 17 22 26 27 29 32 34 35 37 38 39 40 41 43 46 47 47 46 45 45 45 46 48 49 49 50 52 54 55 56 55 53 49 46 44 41 38 35 32 29 26 24 23 23 24 23 22
3 7 12 15 17 17 18 19 21 24 23 18 14 12 10 12 19 25 24 14 14 22 24 23 27 26 18 19 26 30 33 34 35 40 41 36 32 26 18 19 28 34 34 34 34 35 38 41 42 42 42 43 45 47 48 50 50 49 49 48 47 49 49 49 50 52 54 56 56 55 52 49 47 44 41 38 34 32 29 26 24 24 24 24 22 21
4 9 11 11 12 15 18 21 22 21 17 15 15 13 13 17 23 25 18 10 15 23 24 24 26 21 17 22 27 31 37 37 33 35 34 31 34 34 28 27 35 40 41 38 35 35 37 41 42 42 43 44 46 48 49 51 52 51 50 48 48 49 49 49 50 53 54 55 56 55 52 49 47 44 41 37 34 31 28 25 24 24 24 23 21 21
4 8 7 6 9 13 16 21 22 18 15 15 16 17 21 25 24 21 19 16 18 20 21 21 18 14 17 24 25 26 29 28 28 29 26 29 38 38 30 27 32 38 41 39 35 34 35 37 39 41 42 44 45 47 49 50 50 51 50 49 49 49 48 49 50 53 54 55 55 54 51 49 46 43 40 37 34 30 27 25 25 24 24 22 21 20
4 6 6 7 10 12 15 20 19 14 11 11 15 24 31 29 24 22 24 26 25 20 17 15 12 13 18 20 20 24 26 26 28 24 20 26 37 36 29 27 32 37 40 38 36 36 36 35 36 38 41 42 43 45 46 47 48 49 49 49 49 48 48 48 50 52 54 54 54 53 51 49 46 43 40 36 33 30 27 26 25 24 23 21 20 20
7 9 8 7 8 10 15 17 13 9 10 13 17 23 24 24 26 26 25 28 29 24 18 17 16 18 19 19 21 23 26 32 33 25 24 32 36 32 28 32 37 41 43 42 40 40 39 37 36 37 37 39 40 41 42 44 45 46 46 47 47 46 47 48 50 51 53 54 54 53 51 48 46 42 39 35 32 29 27 26 25 23 22 20 20 19
9 11 9 7 7 8 10 11 11 10 13 14 12 10 14 22 26 26 26 28 30 28 25 24 24 24 24 24 25 26 31 41 39 30 33 41 39 31 29 34 43 45 45 45 43 41 40 37 33 34 34 34 34 35 38 40 41 42 44 45 45 45 45 46 48 50 52 53 53 52 50 48 45 42 38 34 31 29 27 26 24 22 21 20 19 19
12 11 8 7 8 6 5 9 11 8 3 4 6 10 15 18 18 19 22 26 30 30 28 26 26 27 27 26 29 35 42 43 33 27 37 46 43 37 34 36 44 47 46 46 44 41 40 37 32 32 32 30 29 30 33 35 37 39 41 42 43 43 43 45 47 49 51 53 53 51 50 48 44 41 37 33 31 28 26 24 22 21 20 20 19 18
15 11 7 8 9 7 7 10 11 8 2 3 7 12 14 14 16 18 19 21 25 25 23 23 24 27 28 26 29 41 44 31 16 19 40 51 46 41 41 43 47 48 47 48 46 41 38 35 33 32 31 29 29 28 28 30 32 35 37 39 40 40 42 44 46 48 51 52 52 51 49 47 43 39 36 32 29 27 24 22 21 20 20 19 18 17
17 14 11 11 9 8 9 8 7 9 7 9 13 16 17 19 22 23 21 16 13 12 16 20 23 26 27 25 27 33 30 17 6 13 36 51 47 41 41 43 45 45 45 45 42 37 34 32 31 31 30 29 28 26 25 26 28 31 34 36 38 39 41 44 46 49 51 53 53 51 49 46 42 38 35 31 28 25 23 22 21 20 19 18 16 16
21 15 12 12 7 7 10 7 7 11 8 10 16 18 20 23 22 20 19 10 7 10 16 21 23 25 24 23 25 22 15 10 7 12 35 52 47 39 37 36 37 40 39 39 37 33 31 30 29 30 30 28 27 24 23 24 26 29 32 34 37 40 42 45 47 50 52 53 52 50 47 44 40 37 33 29 26 24 23 22 20 19 18 17 15 15
17 10 11 14 9 10 14 9 7 8 5 9 15 17 23 29 23 17 14 5 9 16 24 24 25 26 23 21 21 15 10 11 12 21 41 50 41 36 36 33 33 35 33 33 34 32 31 31 30 30 30 29 28 26 25 25 26 30 32 34 37 40 42 45 47 50 52 52 51 48 45 41 37 33 30 27 25 23 22 21 20 19 17 15 14 15
11 8 11 14 12 14 17 11 7 7 6 9 14 17 24 26 19 15 13 8 10 20 28 27 24 25 25 22 16 13 16 24 28 34 44 43 36 38 42 38 36 35 33 34 34 33 32 32 32 32 31 30 29 28 27 27 28 30 33 35 38 40 42 44 47 50 52 52 50 47 44 39 35 31 28 26 24 23 22 21 20 18 16 14 14 14
8 7 8 11 11 13 14 11 9 8 8 13 18 23 25 18 10 12 18 22 23 24 26 27 25 25 29 27 23 25 31 38 40 38 37 38 39 43 45 41 38 38 38 38 37 36 35 34 33 34 32 31 30 30 29 30 30 31 34 36 38 40 42 45 48 51 52 52 50 47 43 38 34 30 27 25 24 23 22 20 19 17 15 14 14 13
9 8 8 9 9 10 10 10 10 6 9 19 23 20 16 13 13 15 18 24 30 27 23 24 25 27 30 30 31 35 36 37 39 37 36 37 38 39 41 41 38 38 40 40 39 39 36 34 34 35 33 32 32 32 32 32 33 34 36 38 39 40 43 46 48 51 52 52 50 47 42 38 33 30 28 26 25 24 22 20 18 16 14 13 12 11
8 7 6 5 7 8 8 8 6 4 5 17 20 14 13 20 29 30 23 20 24 25 23 21 23 28 30 29 31 34 34 34 36 36 36 36 34 36 38 37 36 37 39 40 40 39 36 34 34 34 34 34 33 33 34 35 35 36 37 39 40 42 44 46 49 52 53 52 50 46 42 38 35 32 30 28 26 23 21 20 18 16 13 12 11 10
3 4 5 4 4 5 6 5 4 9 10 7 10 13 17 22 26 26 23 19 19 21 21 20 22 27 29 27 26 27 28 29 30 31 31 31 31 32 32 31 33 36 38 38 38 36 34 33 33 33 35 35 34 34 36 37 37 38 40 41 42 44 45 48 51 53 54 52 50 46 42 38 35 33 30 28 25 23 21 20 18 15 13 12 10 9
6 7 4 2 5 8 7 5 6 10 14 18 23 28 29 27 26 25 23 21 23 28 30 28 29 32 34 33 30 28 29 31 32 33 32 31 31 32 32 32 33 35 35 35 36 35 33 32 32 34 35 36 36 36 37 38 39 40 41 42 43 44 46 49 53 55 55 53 49 45 42 38 36 32 29 27 25 23 21 19 17 14 13 11 9 9
6 8 5 4 8 8 5 6 13 16 19 25 30 32 28 24 23 24 23 22 26 31 34 34 33 33 34 34 31 28 30 33 34 35 36 36 36 36 36 36 36 37 37 37 36 35 33 32 33 35 36 38 38 37 37 39 39 40 41 42 43 45 47 51 54 56 55 53 49 45 42 38 35 32 29 27 25 23 21 19 16 13 12 10 9 9
9 14 11 8 9 10 10 13 19 24 30 32 27 20 19 21 22 25 26 28 31 34 36 37 37 35 35 37 35 32 35 38 38 37 39 40 39 39 40 39 39 39 39 38 37 36 34 34 36 38 39 41 41 39 39 40 40 42 43 43 44 46 49 53 56 57 56 52 48 44 41 37 34 30 28 26 25 23 21 18 15 13 12 10 8 8
14 15 12 11 13 16 16 17 17 20 25 26 18 14 20 25 26 29 32 34 35 36 36 37 38 36 36 38 38 35 35 39 41 40 40 42 41 41 42 41 40 40 41 41 40 38 37 38 39 40 42 43 42 40 40 41 43 45 46 45 45 47 51 55 57 57 55 51 47 43 40 36 33 30 28 26 24 22 19 17 14 13 11 10 8 7
12 13 12 11 11 12 11 12 15 15 14 14 17 23 30 32 32 34 35 36 37 38 37 38 40 41 41 41 41 38 37 40 43 43 42 42 43 44 44 44 42 42 43 44 43 42 42 43 42 42 43 43 42 41 41 43 46 47 48 48 47 49 54 58 58 57 54 50 47 43 39 35 32 30 28 26 24 22 19 17 15 14 11 9 7 5
11 11 10 9 10 12 14 16 17 15 12 16 28 37 41 42 41 38 37 38 40 41 41 40 40 41 43 44 43 42 41 42 44 44 43 45 46 47 47 47 45 45 46 46 46 47 47 47 45 44 43 43 43 43 43 45 48 50 50 50 50 53 57 60 61 59 55 51 47 42 37 34 32 30 28 26 24 22 20 18 16 14 11 8 6 4
Wind_Direction
192 222 233 238 242 242 238 230 233 250 268 284 287 281 275 276 272 272 274 154 184 230 243 247 253 259 263 265 265 268 270 270 270 268 263 263 266 265 259 254 245 242 249 252 254 256 252 246 243 240 240 239 238 237 236 235 233 233 233 232 230 230 231 231 231 230 228 227 228 230 232 234 236 238 239 239 239 240 242 243 244 249 255 263 273 282
191 227 237 241 251 260 271 266 254 257 267 270 268 273 272 267 267 273 272 145 164 224 258 262 265 264 263 265 266 265 264 262 263 264 264 266 270 269 263 257 250 241 244 249 249 250 249 245 241 239 238 238 237 237 236 235 233 233 233 232 231 231 230 230 230 230 229 229 230 232 233 234 236 238 238 237 238 239 240 241 243 250 257 264 273 282
212 235 245 247 255 270 290 287 268 262 261 261 255 260 265 264 271 272 233 132 163 221 268 279 277 274 270 265 262 258 255 252 252 256 263 269 272 270 265 262 253 233 232 243 246 245 246 244 241 238 237 238 237 237 236 235 234 233 232 231 230 230 230 230 230 229 229 229 230 231 232 233 236 237 237 238 238 238 238 240 244 250 257 266 273 281
222 239 250 250 233 240 254 235 242 255 248 243 238 245 256 257 269 269 205 140 205 222 273 292 282 274 268 258 250 246 245 247 247 252 262 266 264 264 264 264 249 226 228 240 243 243 243 241 240 238 236 236 235 235 234 233 233 232 231 231 230 230 230 229 229 229 228 229 230 231 233 235 237 238 238 237 237 237 237 240 245 252 259 266 273 278
239 242 195 169 187 233 248 214 214 240 240 232 227 235 250 252 259 266 311 346 263 236 260 303 286 267 256 248 242 235 234 243 245 248 259 261 260 262 265 266 251 224 226 240 244 242 241 240 241 239 236 234 233 234 234 234 234 233 231 231 230 230 230 229 229 229 229 230 231 231 233 234 235 237 236 235 236 235 238 242 246 253 260 265 271 275
247 232 129 183 207 210 233 234 220 222 246 243 223 230 245 257 267 274 319 350 302 267 152 345 305 275 225 233 242 196 189 224 231 233 245 253 258 262 266 265 251 226 229 243 247 242 241 242 242 239 236 233 232 234 236 236 235 235 233 231 231 231 230 229 229 230 231 231 231 231 231 232 233 235 235 235 236 236 239 243 247 252 257 263 268 273
244 188 135 227 228 206 228 251 233 208 240 252 228 249 254 261 272 278 298 312 285 283 318 48 313 286 228 209 236 210 194 198 196 226 237 243 250 253 262 266 251 236 238 240 240 240 240 240 240 238 235 233 233 234 236 236 235 235 234 232 232 232 231 230 231 231 231 231 230 230 231 233 234 235 235 235 236 238 241 243 247 251 255 261 267 273
194 182 182 217 223 223 228 249 230 198 224 249 30 357 289 261 265 266 277 259 261 291 284 158 239 275 274 218 218 223 221 211 209 238 244 241 240 241 254 264 257 248 248 241 235 236 239 239 236 236 234 233 232 233 235 235 235 235 234 233 233 233 232 233 233 232 232 231 230 231 231 233 235 235 235 236 236 238 241 243 246 251 256 261 267 274
154 189 199 189 196 224 222 260 209 191 215 261 65 39 67 75 265 234 252 258 273 293 276 194 181 265 283 207 193 211 218 223 226 237 246 250 247 241 246 257 258 255 252 246 237 233 235 232 229 233 233 231 229 230 234 236 236 235 235 234 234 234 234 234 234 233 232 231 231 232 232 234 235 235 236 237 237 238 240 242 246 251 256 261 267 273
64 142 209 187 197 228 199 39 13 204 211 143 115 87 83 97 108 173 247 273 282 274 259 208 167 238 285 204 164 191 206 217 225 231 238 246 251 252 245 245 251 252 248 243 232 226 226 224 224 228 227 226 226 228 233 235 235 235 234 234 234 234 234 234 234 233 232 232 232 232 233 234 235 235 235 236 236 237 240 241 246 251 256 262 268 273
117 89 21 217 216 222 99 66 18 13 108 133 144 117 123 194 174 213 242 268 278 265 245 201 179 208 274 192 144 174 195 198 202 217 238 250 254 255 241 234 243 248 243 231 218 214 217 219 221 223 224 223 222 226 231 234 234 233 233 234 234 233 233 233 233 233 232 231 232 233 233 234 235 235 234 235 236 237 240 241 245 249 254 262 267 271
198 172 200 209 179 117 104 89 47 43 107 159 179 208 232 233 201 220 219 165 250 264 224 183 186 199 235 217 153 183 192 187 181 212 257 269 267 265 247 234 245 245 232 216 207 209 211 215 217 218 220 219 219 226 234 237 236 233 233 232 232 232 232 233 233 232 232 231 232 232 233 233 233 234 234 235 236 237 239 241 244 248 253 259 263 268
212 208 190 150 151 172 171 145 102 104 189 202 198 200 243 255 240 239 223 191 237 254 131 160 191 207 234 246 237 236 206 189 193 234 261 262 262 267 250 237 251 242 221 207 203 208 210 213 216 216 217 216 220 230 239 242 239 235 233 231 231 231 231 232 232 232 231 231 232 231 232 232 231 233 233 234 236 237 238 241 244 248 252 257 261 266
221 222 172 162 188 187 186 195 207 193 182 193 192 185 211 239 257 259 246 240 247 247 123 127 185 239 258 255 233 234 226 209 213 234 246 249 251 255 243 241 255 243 218 206 204 209 211 213 216 215 217 218 220 229 241 245 242 237 234 231 231 231 231 233 233 232 232 231 231 231 231 231 230 231 233 234 236 237 238 240 243 248 252 256 260 265
246 273 176 170 168 170 187 211 215 134 171 196 195 196 218 229 247 260 259 259 271 291 239 152 177 250 275 281 199 221 226 213 215 230 238 244 247 249 243 241 250 242 223 211 207 212 213 214 217 215 218 221 220 227 240 245 242 238 235 233 232 230 231 233 233 232 232 231 231 230 230 230 230 231 232 233 235 236 238 240 243 247 250 255 259 264
241 266 165 136 113 158 182 216 172 112 181 193 181 207 231 234 229 249 272 273 303 314 274 194 221 252 270 278 178 176 209 195 202 227 232 238 244 244 241 241 245 241 230 218 213 216 216 216 220 219 221 222 222 227 238 243 243 240 238 234 232 231 232 234 234 233 232 231 231 229 229 229 229 229 230 232 234 235 237 239 242 246 249 254 260 264
233 273 135 111 31 151 164 265 164 185 220 162 176 205 215 293 228 245 270 286 114 278 268 224 249 263 274 268 188 154 179 179 191 224 223 228 239 240 239 242 244 242 237 230 221 219 220 222 225 225 224 226 226 230 238 245 245 242 239 235 232 230 232 234 235 234 232 232 231 229 229 229 229 229 230 231 233 234 236 238 241 245 249 255 260 265
231 272 169 163 240 139 40 359 141 301 302 145 187 205 115 44 327 248 263 268 244 263 271 263 266 268 274 271 166 164 187 188 203 226 224 226 235 239 241 244 248 247 244 240 232 226 226 229 232 232 231 231 231 234 240 246 245 242 239 236 233 231 233 235 235 234 233 232 231 229 228 228 228 228 229 230 232 232 234 237 240 244 249 255 260 265
207 257 233 161 322 118 100 244 190 216 239 184 293 293 92 216 208 204 226 246 254 258 269 273 275 269 258 258 190 183 192 198 214 222 219 223 227 233 240 245 250 252 249 248 244 239 235 233 235 237 238 236 233 234 240 244 244 242 240 236 234 233 234 236 235 234 233 232 231 230 229 228 227 227 227 229 230 231 233 236 240 244 249 255 260 266
180 225 245 37 8 127 138 226 206 179 185 239 311 267 215 247 226 210 211 226 242 247 266 278 282 275 253 247 237 199 186 200 216 212 206 216 222 225 234 242 248 251 251 252 252 253 249 243 241 244 246 243 237 235 239 243 244 244 242 238 234 233 234 235 235 235 233 232 231 230 228 227 226 226 226 228 229 230 232 235 239 243 249 255 261 268
155 217 238 28 14 208 196 205 195 187 181 182 226 217 196 200 258 285 246 232 236 244 256 266 273 275 273 171 219 186 178 208 221 216 212 207 215 223 231 239 246 251 254 255 259 264 263 256 250 249 250 246 238 236 238 242 245 245 244 241 236 234 234 234 235 234 234 233 231 230 228 226 225 225 225 226 227 229 231 234 238 243 249 255 263 271
177 210 222 204 206 224 222 201 196 201 190 183 196 199 196 189 180 233 238 224 219 236 243 248 262 266 270 96 142 160 162 235 247 238 238 212 209 221 229 239 250 256 255 258 265 268 268 264 258 253 253 247 238 236 237 240 244 247 246 244 239 236 236 235 235 234 234 232 231 229 227 226 225 224 224 225 225 227 230 233 237 242 249 256 265 272
189 180 221 228 227 234 239 197 213 248 229 222 218 206 205 191 185 215 227 215 196 218 242 246 253 263 266 98 118 176 109 286 276 254 253 236 220 226 236 247 256 257 253 258 267 268 267 267 263 258 255 248 239 236 237 240 244 247 248 246 242 239 238 236 235 235 234 232 230 228 226 225 224 223 223 223 224 226 228 231 236 242 249 258 266 271
133 95 227 242 265 281 283 58 29 2 297 248 242 217 213 207 206 221 233 239 204 207 230 237 243 261 268 106 157 282 283 272 260 251 256 256 246 245 248 250 251 248 248 255 262 264 264 265 266 260 253 246 240 237 237 240 244 247 249 248 245 242 239 237 236 234 233 231 229 227 225 224 223 222 221 222 223 224 227 231 236 243 250 259 266 270
167 185 212 233 254 265 267 246 227 198 195 223 234 220 218 220 218 231 258 291 247 236 239 246 250 256 260 201 280 275 265 237 233 249 260 263 259 254 245 239 239 239 242 249 255 259 261 262 264 262 254 247 241 238 238 240 243 247 251 251 248 243 240 238 236 234 232 230 228 226 224 223 222 221 220 220 221 223 226 231 237 243 252 259 265 270
185 205 193 220 235 222 232 241 233 156 186 216 230 220 215 215 213 220 230 220 237 242 241 246 254 259 270 286 287 280 275 268 265 269 270 260 253 248 234 227 231 235 239 246 250 255 258 258 260 262 258 250 241 238 239 241 244 248 252 252 249 243 240 239 237 233 231 229 226 224 223 222 220 219 219 219 220 222 226 231 238 245 253 260 265 271
171 221 208 226 237 228 233 242 245 163 175 191 213 214 207 210 214 217 227 228 237 245 244 245 252 262 271 279 283 283 284 286 285 283 279 260 243 236 230 230 233 238 244 247 250 252 254 255 258 262 261 253 245 241 241 243 245 249 252 252 248 243 241 239 236 232 229 227 225 223 221 220 219 218 217 218 219 222 226 232 239 247 254 260 265 271
274 237 225 234 238 236 241 245 247 246 222 197 198 204 205 209 210 211 224 231 236 249 250 246 251 260 264 268 274 277 280 284 281 279 280 277 265 249 238 237 238 242 247 248 249 250 252 255 257 261 261 257 252 248 246 245 247 250 253 252 248 244 242 239 236 231 228 225 223 221 220 219 217 216 216 216 218 222 227 233 240 248 255 260 266 272
238 241 235 241 244 245 250 253 256 259 253 234 211 207 210 208 205 216 229 230 226 241 251 251 255 261 261 259 265 271 277 278 275 278 282 285 282 272 248 241 249 255 258 257 255 253 254 256 257 259 260 259 257 254 251 248 249 252 254 252 247 244 242 239 234 230 226 223 221 220 218 217 216 215 215 216 218 222 227 234 241 248 255 260 266 273
214 245 241 247 257 257 256 259 261 262 265 263 250 240 239 234 228 232 237 228 220 238 248 251 255 259 260 260 263 267 270 271 275 279 280 282 283 275 263 267 277 279 277 271 266 261 258 258 258 259 259 258 257 257 254 253 253 256 255 251 247 244 241 237 232 229 225 222 219 218 217 215 215 214 214 215 218 222 227 234 241 248 254 259 266 273
204 235 240 248 260 255 249 252 252 254 261 268 269 276 280 268 256 251 251 233 225 240 246 245 252 258 259 260 261 262 265 269 274 275 274 280 282 279 277 282 283 282 280 276 271 268 264 261 259 259 258 258 258 258 256 256 256 255 253 250 247 244 241 237 232 228 224 221 218 216 215 214 214 213 213 215 218 222 228 234 241 247 252 258 266 273
205 231 232 231 247 244 240 243 245 249 261 270 276 274 261 255 256 257 256 247 239 245 250 248 250 250 250 256 259 261 265 268 268 268 271 276 276 277 283 284 277 276 276 276 275 274 271 266 261 259 259 261 261 259 259 258 256 254 252 250 247 244 240 236 231 227 222 219 217 215 214 214 212 211 212 214 218 223 228 234 240 246 252 258 265 272
188 217 215 215 239 243 238 242 247 254 265 265 253 246 244 246 250 253 255 253 249 247 249 247 239 234 243 254 260 264 266 264 261 262 267 269 271 276 281 277 272 273 276 278 279 278 276 273 268 265 264 265 264 264 264 262 259 256 254 250 247 244 239 234 229 225 220 217 216 214 213 212 211 211 212 214 219 223 228 235 240 245 252 258 264 270
194 215 224 223 238 243 239 245 252 245 236 236 235 235 239 244 246 245 247 249 249 247 247 250 253 254 255 254 255 258 261 261 263 267 268 267 269 275 277 274 274 276 278 281 281 280 279 277 274 272 272 271 269 267 264 261 257 255 252 249 246 242 238 233 227 222 218 216 215 213 212 211 210 210 212 215 219 224 229 236 241 245 252 257 263 269
209 220 229 227 235 243 240 242 243 230 227 238 241 230 227 235 239 242 247 250 252 252 250 251 253 255 256 255 255 256 257 260 265 273 274 270 270 270 270 271 274 276 279 281 281 281 282 280 277 277 277 276 272 266 260 257 255 253 249 247 245 241 237 232 226 221 217 215 213 212 211 210 209 210 212 215 220 225 231 236 241 246 252 257 263 268
219 225 225 225 231 235 219 216 227 237 236 235 228 217 223 232 238 245 251 249 246 246 247 247 249 251 253 255 255 256 259 263 268 275 273 271 270 268 264 265 269 272 275 277 278 281 283 283 281 279 279 279 274 267 262 259 256 252 248 246 243 239 236 231 225 220 217 214 213 211 209 208 208 209 212 215 220 226 231 237 242 247 252 257 261 267
218 223 221 224 224 218 222 221 229 255 274 159 196 216 219 218 218 229 243 242 235 236 242 246 250 251 251 252 254 257 261 267 275 274 270 268 267 264 263 265 267 270 272 275 277 280 282 283 281 278 278 277 274 270 266 261 256 251 247 243 240 237 233 228 223 220 217 214 212 210 208 207 207 209 212 216 221 227 232 238 243 247 251 256 261 267
215 217 217 226 219 206 228 234 224 242 234 194 206 220 220 220 222 229 244 244 221 219 236 242 244 247 248 250 253 257 260 264 262 260 265 267 266 264 264 265 267 269 271 274 277 278 279 280 279 278 278 274 271 268 264 259 253 248 244 240 238 234 229 225 222 220 216 213 211 209 207 206 207 210 213 216 221 227 233 239 242 246 251 255 261 268
217 217 217 231 229 209 231 239 220 232 227 198 214 225 228 233 234 238 252 249 167 188 228 238 241 244 246 249 252 256 259 258 248 250 260 265 268 268 268 268 268 269 269 271 273 274 277 278 277 275 272 267 263 261 258 253 247 240 237 235 233 230 226 223 221 218 214 211 209 207 206 206 208 210 213 216 221 227 232 237 240 245 249 254 262 270
218 214 216 228 231 223 234 242 230 239 229 198 212 222 229 235 236 240 252 229 161 201 224 232 239 243 245 250 254 255 251 245 244 250 258 263 269 272 273 272 269 268 267 269 271 272 274 276 275 272 268 266 263 259 253 247 240 235 233 230 227 225 224 222 218 215 211 208 206 204 204 206 208 210 213 217 222 227 231 235 238 242 247 254 262 271
213 205 211 223 227 224 230 237 240 239 216 201 211 217 225 233 235 236 245 232 204 219 225 229 237 244 249 257 261 257 253 253 254 256 261 267 272 273 273 274 271 269 269 269 270 270 271 273 275 272 269 267 264 256 249 243 237 233 230 226 224 224 222 218 214 210 207 205 203 202 203 205 208 211 215 219 224 228 231 233 236 239 244 252 261 272
202 204 210 217 222 226 229 234 248 243 199 201 223 226 223 228 234 234 238 240 239 239 238 238 244 249 252 257 259 259 261 262 261 261 263 265 267 268 272 273 271 271 272 271 270 270 269 270 272 269 266 264 260 254 248 243 237 233 229 225 223 221 217 213 210 207 204 201 200 200 201 203 207 210 216 221 225 228 230 230 233 238 241 249 261 274
188 200 212 203 207 226 230 225 242 248 183 196 220 228 216 220 237 240 241 244 246 250 251 248 251 256 257 259 261 263 265 265 265 264 263 262 263 265 269 272 271 271 273 272 272 272 269 268 268 266 264 262 258 253 248 242 236 232 227 223 221 217 212 210 207 204 201 199 198 198 200 202 206 211 217 222 224 225 226 227 232 235 239 249 261 274
200 207 228 211 195 214 226 218 237 294 211 205 219 231 224 229 237 241 248 255 254 257 262 263 265 268 269 269 270 270 270 267 265 266 266 265 265 265 267 271 273 273 274 273 273 273 270 266 264 262 260 258 256 253 249 242 234 228 225 221 217 212 209 208 204 201 199 197 196 197 199 201 206 210 215 218 220 221 222 225 229 232 238 249 259 272
265 305 304 281 247 254 274 279 309 341 340 296 269 274 272 270 273 279 290 297 291 292 300 307 309 308 307 309 310 305 299 293 289 286 283 280 278 276 277 280 280 278 277 276 275 274 272 267 262 258 256 254 253 253 249 240 232 227 224 219 215 211 208 205 201 198 196 195 195 197 198 201 205 209 212 215 216 218 219 222 226 230 237 246 255 267
308 329 331 295 310 313 305 319 352 352 344 333 322 313 308 307 316 328 336 334 329 329 330 330 329 327 326 329 332 329 321 318 317 313 309 306 302 300 300 298 293 290 286 283 282 281 276 269 261 256 254 253 253 251 246 239 233 229 225 219 214 211 207 202 198 196 194 195 196 196 198 202 205 207 209 211 212 214 216 219 222 225 232 241 250 259
313 335 341 313 313 312 302 336 343 330 318 312 307 305 311 318 325 333 338 337 331 328 326 324 324 323 322 323 325 322 318 317 316 313 311 310 308 307 305 302 299 297 295 292 291 286 279 272 265 261 259 257 256 252 244 237 231 227 224 220 214 209 205 200 197 194 194 194 195 196 198 202 204 205 206 207 208 210 212 215 218 221 228 236 243 255
319 335 337 319 309 302 288 300 308 302 297 296 293 296 317 328 327 324 323 322 320 318 315 315 315 315 315 314 312 310 310 309 307 305 304 304 302 300 299 297 296 294 293 292 289 285 281 277 272 268 265 262 259 253 243 234 226 222 221 219 214 208 202 198 196 194 193 194 195 197 199 200 201 203 204 205 206 207 210 212 213 216 224 229 236 252
297 309 307 299 299 295 290 296 303 299 295 293 294 315 325 320 316 315 314 313 313 311 310 310 308 308 307 305 302 301 300 299 298 297 296 295 294 292 292 292 292 291 289 289 287 286 284 281 277 273 269 265 259 252 241 231 225 221 218 216 213 207 200 196 195 194 193 194 196 197 198 198 199 200 201 201 203 204 205 208 209 212 219 224 231 250
270 272 276 284 287 280 281 294 301 301 298 297 308 317 316 312 311 311 310 310 309 307 306 305 303 301 299 296 295 293 291 290 290 289 288 287 287 287 287 288 289 288 287 287 285 283 281 280 278 275 269 263 257 249 239 230 225 221 217 213 210 206 200 196 193 193 193 195 196 197 197 196 196 197 197 198 200 201 201 202 203 206 210 216 226 252
262 263 267 269 270 273 282 293 298 298 297 301 306 307 306 305 305 305 304 305 303 301 300 299 297 295 294 292 290 289 287 286 286 285 285 284 283 284 284 285 285 284 283 282 280 278 278 278 275 270 265 260 255 247 238 231 227 222 216 211 207 204 200 197 193 192 193 194 195 195 195 195 195 195 194 195 197 197 197 198 199 199 200 204 212 237